Location: Unspecified
(43.1763°N, 79.4719°W)
Time: 12:11:31
(UTC-05:00)

ISS - Visible Passes

Search period start: 14 December 2018 00:00
Search period end: 24 December 2018 00:00
Orbit: 401 x 408 km, 51.6° (Epoch: 15 December)

Date Brightness Start Highest point End Pass type
(mag) Time Alt. Az. Time Alt. Az. Time Alt. Az.
14 Dec -2.0 17:25:50 10° WNW 17:28:52 35° SW 17:31:51 10° SSE visible
16 Dec -0.5 17:18:44 10° W 17:20:45 16° SW 17:22:47 10° S visible
23 Dec -0.8 06:22:17 10° S 06:24:35 18° SE 06:26:53 10° E visible
